COSMOS 1975

Satellite information

Favourite Embed

Satellite Type and Status

PAYLOADIN ORBIT

Key statistics

Satellite COSMOS 1975 at a glance.

Uptime

13578

Days in orbit

Revolutions

≈ 15.3

Per day

Orbit

LEO

Low Earth Orbit

Inclination

82.5

Latest

Satellite identification and parameters

Extended collection of information and parameters for COSMOS 1975.

Object identification

Identified? True

Debris? False

Object name: COSMOS 1975

International designator: 1988-093A

Object number (NORAD): 19573

Object ID (CCSDS): 19573

Country: COMMONWEALTH OF INDEPENDENT STATES (CIS)

Current information (Y/N): Y

RCS size: LARGE

Orbital parameters

Period: 94.336 minutes

Inclination: 82.5203 deg

SMA: 6864.558 km

Apoapsis: 495.217 km

Periapsis: 477.629 km

RAAN: 205.5096 deg

Eccentricy: 0.00128109

Argument of periapsis: 114.497 deg

Mean anomaly: 245.7606 deg

Mean motion: 15.26454605 rev/day

Mean motion (dot): 0.00010206 rev/day2

B* drag term: 0.00038937846 1/REarth

Two-line elements (TLE)

Creation date: Dec. 12, 2025, 10:14 a.m.

Reference frame: TEME

Reference center: EARTH

Epoch: Dec. 12, 2025, 1:26 a.m. UTC

TLE line 0: 0 COSMOS 1975

TLE line 1: 1 19573U 88093A 25346.05981520 .00010206 00000-0 38938-3 0 9996

TLE line 2: 2 19573 82.5203 205.5096 0012811 114.4970 245.7606 15.26454605 6030

Live tracking on map

Real-time ground track for satellite COSMOS 1975.

In-orbit conjunctions

A list of the most updated potential collisions computed for object COSMOS 1975.

Target Orbit TCA Probability of collision Miss distance Type
CZ-2C R/B SSO 2025-06-28 22:57:01 0.0002376028 101.0 (m) ROCKET BODY
CZ-6A DEB LEO 2025-06-26 08:41:40 0.0001303326 207.0 (m) DEBRIS
COSMOS 2535 DEB SSO 2025-06-03 23:00:45 0.0002078066 213.0 (m) DEBRIS
CZ-6A DEB LEO 2025-04-28 02:58:17 0.0002873956 716.0 (m) DEBRIS
COSMOS 249 DEB * LEO 2025-04-10 02:01:02 0.0001367002 710.0 (m) DEBRIS

Associated space launch

Tselina-D satellites provided detailed observation of radio sources detected by the smaller Tselina-O satellites as part of the Tselina ELINT system.

COSMOS 1975 was lifted into orbit during the mission ‘Tsiklon-3 | Tselina-D 66’, on board a Tsiklon-3 space rocket.

The launch took place on Oct. 11, 1988, 8:02 a.m. from 32/1.

For more information about the launch, click the button.

Launch to space Tsiklon-3 | Tselina-D 66
Tsiklon-3 | Tselina-D 66

Agency: N/A

Status: Launch Successful

Launch date: Oct. 11, 1988, 8:02 a.m. UTC

Rocket: Tsiklon-3

Launch pad: 32/1

Location: Plesetsk Cosmodrome, Russian Federation

...

Latest news about this satellite

There are no fresh news available about this satellite. Check back as we update our databases every day.


Newsletter sign-up

Weekly statistics, charts and insights to help you stay on top of the space industry.